Location: Bretagne
(43.8474°N, 0.4650°W)
Time: 12:32:18
(UTC+00:00)

Radarsat Rocket - Pass Details

Date: 29 April 2026
Orbit: 933 x 1491 km, 100.5° (Epoch: 12 May)

Event Time Altitude Azimuth Distance (km) Brightness Sun altitude
Rises 19:13:34 0° 176° (S) 4,582 7.2 -2.7°
Reaches altitude 10° 19:16:27 10° 181° (S) 3,623 6.7 -3.2°
Maximum altitude 19:24:55 57° 258° (WSW) 1,697 5.6 -4.6°
Drops below altitude 10° 19:33:09 10° 336° (NNW) 3,514 7.7 -5.9°
Sets 19:35:55 0° 341° (NNW) 4,437 8.2 -6.3°
